Regional Weather Roundup
Issued by NWS

Home | Current Version | Previous Version | Text Only | Print | Product List | Glossary On
Versions: 1 2 3 4 5 6 7 8 9 10 11 12 13 14 15 16 17 18 19 20 21 22 23 24 25 26 27 28 29 30 31 32 33 34 35 36 37 38 39 40 41 42 43 44 45 46 47 48 49 50
302
ASUS45 KPSR 201610
RWRAZ

ARIZONA HOURLY REGIONAL WEATHER ROUNDUP
NATIONAL WEATHER SERVICE PHOENIX AZ
900 AM MST MON FEB 20 2017

NOTE: FAIR INDICATES FEW OR NO CLOUDS BELOW 12,000 FEET WITH NO
SIGNIFICANT WEATHER AND/OR OBSTRUCTIONS TO VISIBILITY.

AZZ001>003-036-201700-
NORTHWEST ARIZONA

CITY           SKY/WX    TMP DP  RH WIND       PRES   REMARKS
BULLHEAD CITY  CLOUDY    57  50  77 SW5       30.22R
KINGMAN        CLOUDY    48  41  76 SE3       30.23R
$$

AZZ004>008-015-016-018-201700-
NORTH CENTRAL ARIZONA

CITY           SKY/WX    TMP DP  RH WIND       PRES   REMARKS
GRAND CANYON   CLOUDY    36  34  92 S6        30.24R WCI  31
WILLIAMS       CLOUDY    37  34  87 S8        30.25R WCI  31
PRESCOTT       MOSUNNY   43  38  82 SE3       30.25R
FLAGSTAFF      CLOUDY    35  31  85 W5        30.25R WCI  31
PAYSON         CLOUDY    45  39  81 CALM      30.29R
PAGE           MOSUNNY   44  32  62 W5        30.19R
$$

AZZ009>014-017-201700-
NORTHEAST ARIZONA

CITY           SKY/WX    TMP DP  RH WIND       PRES   REMARKS
WINSLOW        SUNNY     39  34  82 CALM      30.26R
SAINT JOHNS    CLOUDY    40  33  76 S8        30.26R WCI  34
WINDOW ROCK    CLOUDY    37  29  72 SW3       30.26R
SHOW LOW       SUNNY     36  30  80 SE6       30.26R WCI  31
$$

AZZ023-201700-
GREATER PHOENIX AREA

CITY           SKY/WX    TMP DP  RH WIND       PRES   REMARKS
PHOENIX        MOSUNNY   55  47  73 E8        30.23R
BUCKEYE        SUNNY     52  52 100 CALM      30.25R
GLENDALE       MOSUNNY   54  54 100 CALM      30.25R
LUKE AFB       SUNNY     55 N/A N/A CALM      30.23R
DEER VALLEY    SUNNY     55  50  83 E3        30.23R
SCOTTSDALE     SUNNY     54  50  86 CALM      30.20R
MESA-FALCON    MOSUNNY  N/A N/A N/A N6        30.21R
MESA-GATEWAY   SUNNY     52  48  87 VRB5      30.25R
CHANDLER       SUNNY     52  52 100 CALM      30.24R
$$

AZZ027-028-201700-
SOUTHWEST MARICOPA COUNTY AND PINAL COUNTY

CITY           SKY/WX    TMP DP  RH WIND       PRES   REMARKS
CASA GRANDE    NOT AVBL
GILA BEND      FAIR      54  50  85 CALM      30.24R
$$

AZZ503-504-507>509-201700-
SOUTHEAST ARIZONA

CITY           SKY/WX    TMP DP  RH WIND       PRES   REMARKS
TUCSON         SUNNY     53  48  83 SE5       30.26R
DAVIS-MONTHAN  SUNNY     53  51  94 SE5       30.25R
RYAN FIELD     SUNNY     52  48  87 CALM      30.26
NOGALES        CLOUDY    45  43  93 S3        30.26R
SIERRA VISTA   MOSUNNY   47  39  74 CALM      30.28R
DOUGLAS        CLOUDY    45  41  86 W3        30.26R
SAFFORD        SUNNY     51  43  74 CALM      30.23R
$$

AZZ020-021-025-026-031-201700-
SOUTHWEST ARIZONA

CITY           SKY/WX    TMP DP  RH WIND       PRES   REMARKS
YUMA             N/A     58  52  80 E3        30.22R
$$

CAZ031-033-041-043-047-048-061-201700-
SOUTHERN CALIFORNIA

CITY           SKY/WX    TMP DP  RH WIND       PRES   REMARKS
DOWNTOWN L.A.  LGT RAIN  54  52  93 E5        30.25R FOG
L.A. AIRPORT   CLOUDY    53  53 100 E9        30.24R FOG
SAN DIEGO      MOSUNNY   58  45  62 E3        30.26S
BURBANK        LGT RAIN  51  49  92 SE9       30.23R FOG
ONTARIO        DRIZZLE   50  50 100 E3        30.25R FOG
RIVERSIDE      CLOUDY    52  51  97 CALM      30.25R
PALM SPRINGS   MOSUNNY   57  53  86 VRB3      30.21R
EL CENTRO NAS  CLOUDY    56  51  84 CALM      30.23R
IMPERIAL       CLOUDY    56  53  90 CALM      30.21R
BLYTHE         SUNNY     56  52  86 S5        30.22R
NEEDLES        CLOUDY    60  50  69 SW3       30.21R
$$

NVZ020-UTZ003-201700-
SOUTHERN NEVADA-UTAH

CITY           SKY/WX    TMP DP  RH WIND       PRES   REMARKS
LAS VEGAS      PTSUNNY   56  44  64 S8        30.11R
SALT LAKE CITY PTSUNNY   48  33  56 S20G26    30.00S
$$

NMZ009-TXZ055-201700-
NEW MEXICO-WEST TEXAS

CITY           SKY/WX    TMP DP  RH WIND       PRES   REMARKS
ALBUQUERQUE    MOSUNNY   46  33  60 W3        30.22R
EL PASO        MOSUNNY   52  34  50 W16G24    30.18R
$$


........................KEY........................
SKY/WX - SKY CONDITION/WEATHER
TMP    - TEMPERATURE IN FAHRENHEIT
DP     - DEW POINT IN FAHRENHEIT
RH     - RELATIVE HUMIDITY IN PERCENT
WIND   - DIRECTION AND SPEED IN MILES PER HOUR (MPH)
VRB    - VARIABLE WIND DIRECTION
PRES   - MEAN SEA LEVEL PRESSURE IN INCHES OF MERCURY
         F - FALLING PRESSURE   R - RISING PRESSURE
         S - STEADY PRESSURE
VSB    - VISIBILITY IN MILES
HX     - HEAT INDEX IN FAHRENHEIT
WCI    - WIND CHILL INDEX IN FAHRENHEIT
TC     - TEMPERATURE IN CELSIUS WHICH IS ALSO KNOWN AS
         TEMPERATURE IN CENTIGRADE
AFB    - AIR FORCE BASE
         LUKE AFB IS LUKE AIR FORCE BASE
         DAVIS-MONTHAN IS DAVIS-MONTHAN AIR FORCE BASE
NAS    - NAVAL AIR STATION
         EL CENTRO NAS IS EL CENTRO NAVAL AIR STATION
N/A    - NOT AVAILABLE





USA.gov is the U.S. government's official web portal to all federal, state and local government web resources and services.